CW2972 Weather Reports


time (UTC)temp
F
wind
direction
speed
knots
gust
knots
rain 1hr
in
rain 24hr
in
rain mn
in
humidity
%
barometer
mb
20260506153021 55 34 0.9 2.6 0.02 1.11 1.10 98 1014.1
20260506152821 54 35 0.9 2.6 0.02 1.11 1.10 98 1014.1
20260506152621 54 35 0.9 2.6 0.02 1.11 1.10 98 1014.2
20260506152421 54 29 0.9 2.6 0.02 1.11 1.10 98 1014.1
20260506152221 54 31 0.9 2.6 0.02 1.11 1.10 98 1014.0
20260506152021 53 24 0.0 2.6 0.02 1.11 1.10 99 1014.0
20260506151842 53 11 0.0 1.7 0.02 1.11 1.10 99 1014.0
20260506151622 53 10 0.9 1.7 0.02 1.11 1.10 98 1014.0
20260506151422 53 3 0.9 1.7 0.02 1.11 1.10 99 1013.9
20260506151221 52 333 0.9 1.7 0.02 1.11 1.10 99 1013.8
20260506151021 52 1 0.9 2.6 0.02 1.11 1.10 99 1013.7
20260506150823 52 16 0.9 2.6 0.01 1.10 1.09 98 1013.6
20260506150621 52 15 0.9 3.5 0.01 1.10 1.09 98 1013.6
20260506150442 52 28 0.9 3.5 0.01 1.10 1.09 98 1013.6
20260506150242 51 36 0.9 3.5 0.02 1.10 1.09 98 1013.6
20260506150022 51 41 0.9 3.5 0.02 1.10 1.09 98 1013.6
20260506145822 51 37 0.9 3.5 0.02 1.10 1.09 98 1013.6
20260506145621 51 38 0.9 4.3 0.02 1.10 1.09 98 1013.7
20260506145421 51 35 0.9 4.3 0.02 1.10 1.09 98 1013.7
20260506145221 51 32 0.9 4.3 0.02 1.10 1.09 98 1013.7
20260506145022 51 29 0.9 4.3 0.02 1.10 1.09 99 1013.9
20260506144842 51 25 0.9 4.3 0.02 1.10 1.09 99 1013.9
20260506144621 52 28 0.9 4.3 0.02 1.10 1.09 99 1013.7
20260506144421 51 32 0.9 4.3 0.02 1.10 1.09 99 1013.7
20260506144221 51 34 0.9 4.3 0.02 1.10 1.09 99 1013.7
20260506144021 51 35 0.9 4.3 0.02 1.10 1.09 99 1013.7
20260506143821 51 40 0.9 4.3 0.03 1.10 1.09 99 1013.7
20260506143622 52 38 0.9 1.7 0.03 1.10 1.09 99 1013.7
20260506143443 51 42 0.9 3.5 0.03 1.10 1.09 99 1013.8
20260506143243 51 38 0.9 3.5 0.02 1.09 1.08 99 1013.8
20260506143023 51 37 0.9 3.5 0.02 1.09 1.08 99 1013.9
20260506142843 51 34 0.9 3.5 0.02 1.09 1.08 99 1013.8
20260506142621 51 29 0.9 3.5 0.02 1.09 1.08 99 1013.8
20260506142422 51 24 0.9 3.5 0.02 1.09 1.08 99 1013.7
20260506142222 51 35 0.0 2.6 0.02 1.09 1.08 99 1013.8
20260506142021 51 27 0.0 2.6 0.03 1.09 1.08 99 1013.9
20260506141822 51 39 0.0 1.7 0.03 1.09 1.08 99 1013.9
20260506141621 51 46 0.0 1.7 0.03 1.09 1.08 99 1013.7
20260506141442 51 40 0.0 1.7 0.03 1.09 1.08 99 1013.6
20260506141221 51 359 0.0 1.7 0.03 1.09 1.08 99 1013.7
20260506141043 51 17 0.9 1.7 0.03 1.09 1.08 99 1013.8
20260506140821 51 17 0.9 1.7 0.04 1.09 1.08 99 1013.8
20260506140622 51 27 0.9 1.7 0.04 1.09 1.08 99 1013.7
20260506140422 51 28 0.9 1.7 0.04 1.09 1.08 99 1013.6
20260506140221 51 32 0.9 1.7 0.03 1.08 1.07 99 1013.5
20260506140021 51 39 0.9 2.6 0.03 1.08 1.07 99 1013.4
20260506135842 51 36 0.9 2.6 0.03 1.08 1.07 99 1013.4
20260506135622 50 29 0.9 2.6 0.03 1.08 1.07 99 1013.3
20260506135422 50 35 0.9 2.6 0.04 1.08 1.07 99 1013.4
20260506135243 50 38 0.9 2.6 0.04 1.08 1.07 99 1013.3
20260506135022 50 35 0.9 2.6 0.04 1.08 1.07 99 1013.3
20260506134821 50 39 0.9 2.6 0.04 1.08 1.07 99 1013.1
20260506134621 50 42 1.7 3.5 0.04 1.08 1.07 99 1013.1
20260506134421 50 47 1.7 3.5 0.04 1.08 1.07 99 1013.1
20260506134221 50 50 1.7 4.3 0.04 1.08 1.07 99 1013.1
20260506134022 50 52 1.7 6.1 0.05 1.08 1.07 99 1013.0
20260506133842 50 47 1.7 6.1 0.04 1.07 1.06 99 1012.9
20260506133621 50 54 1.7 6.1 0.04 1.07 1.06 98 1012.9
20260506133421 50 49 0.9 6.1 0.04 1.07 1.06 98 1012.9
20260506133221 50 43 0.9 6.1 0.04 1.07 1.06 99 1012.8
20260506133021 50 39 0.9 6.1 0.05 1.07 1.06 99 1012.8
20260506132843 50 41 0.9 6.1 0.05 1.07 1.06 99 1012.8
20260506132621 50 31 0.9 5.2 0.05 1.07 1.06 99 1012.8
20260506132442 50 29 0.9 5.2 0.05 1.07 1.06 99 1012.8
20260506132221 50 36 0.9 3.5 0.05 1.07 1.06 99 1012.9
20260506132021 50 38 0.9 3.5 0.05 1.06 1.05 99 1012.9
20260506131821 50 38 0.9 3.5 0.05 1.06 1.05 99 1012.9
20260506131643 50 37 0.9 3.5 0.05 1.06 1.05 99 1012.9
20260506131421 51 30 0.9 3.5 0.06 1.06 1.05 99 1012.7
20260506131222 51 28 0.9 3.5 0.06 1.06 1.05 99 1012.8
20260506131021 51 20 0.9 6.1 0.06 1.06 1.05 99 1012.8
20260506130843 51 18 0.9 6.1 0.06 1.05 1.04 99 1012.9
20260506130622 51 25 0.9 6.1 0.06 1.05 1.04 99 1012.9
20260506130422 51 29 0.9 6.1 0.07 1.05 1.04 99 1012.9
20260506130221 51 31 0.9 6.1 0.07 1.05 1.04 99 1012.9
20260506130021 51 39 0.9 3.5 0.08 1.05 1.04 99 1012.9
20260506125821 51 42 0.9 3.5 0.08 1.05 1.04 99 1012.9
20260506125621 51 29 0.9 3.5 0.08 1.05 1.04 99 1012.9
20260506125443 51 36 0.9 3.5 0.08 1.04 1.03 99 1012.9
20260506125242 51 31 0.9 3.5 0.08 1.04 1.03 99 1012.8
20260506125043 51 44 0.9 3.5 0.08 1.04 1.03 99 1012.9
20260506124843 51 52 0.9 3.5 0.09 1.04 1.03 99 1012.8
20260506124621 51 45 0.9 3.5 0.09 1.04 1.03 99 1012.9
20260506124422 51 28 0.9 3.5 0.10 1.04 1.03 99 1012.8
20260506124221 51 291 0.0 3.5 0.10 1.04 1.03 99 1012.8
20260506124022 51 277 0.0 3.5 0.09 1.03 1.02 99 1012.7
20260506123842 51 270 0.0 3.5 0.10 1.03 1.02 99 1012.8
20260506123642 51 274 0.0 3.5 0.10 1.03 1.02 99 1012.8
20260506123443 51 275 0.0 3.5 0.11 1.03 1.02 99 1012.7
20260506123243 51 277 0.0 0.9 0.11 1.03 1.02 99 1012.6
20260506123021 51 338 0.0 2.6 0.11 1.02 1.01 99 1012.6
20260506122821 51 338 0.0 2.6 0.11 1.02 1.01 99 1012.5
20260506122643 51 13 0.0 2.6 0.12 1.02 1.01 99 1012.5
20260506122421 51 36 0.0 2.6 0.12 1.02 1.01 99 1012.5
20260506122243 51 32 0.0 2.6 0.12 1.02 1.01 99 1012.3
20260506122021 51 24 0.0 1.7 0.12 1.01 1.00 99 1012.4
20260506121821 51 43 0.9 2.6 0.12 1.01 1.00 99 1012.3
20260506121621 51 45 0.9 3.5 0.13 1.01 1.00 99 1012.3
20260506121421 51 45 0.9 3.5 0.12 1.00 0.99 99 1012.3
20260506121221 51 38 0.9 3.5 0.13 1.00 0.99 99 1012.2
20260506121021 51 31 0.9 3.5 0.13 1.00 0.99 99 1012.2
20260506120821 51 22 0.9 3.5 0.13 0.99 0.98 99 1012.3
20260506120622 51 16 0.9 3.5 0.13 0.99 0.98 99 1012.2
20260506120421 51 13 0.9 3.5 0.12 0.98 0.97 99 1012.2
20260506120222 51 21 0.9 3.5 0.13 0.98 0.97 99 1012.3
20260506120022 51 37 0.9 3.5 0.12 0.97 0.96 99 1012.2
20260506115821 51 16 0.9 3.5 0.12 0.97 0.96 99 1012.1
20260506115622 51 327 0.9 2.6 0.12 0.97 0.96 99 1012.1
20260506115421 51 292 0.0 2.6 0.12 0.96 0.95 99 1012.2
20260506115221 51 291 0.0 2.6 0.12 0.96 0.95 99 1012.1
20260506115021 51 277 0.0 2.6 0.12 0.96 0.95 99 1012.0
20260506114822 51 281 0.0 2.6 0.11 0.95 0.94 99 1012.2
20260506114621 51 325 0.9 2.6 0.12 0.95 0.94 99 1012.0
20260506114422 51 29 0.9 4.3 0.11 0.94 0.93 99 1011.8
20260506114221 51 40 0.9 4.3 0.11 0.94 0.93 99 1011.8
20260506114022 51 42 0.9 4.3 0.11 0.94 0.93 99 1011.9
20260506113821 51 36 0.0 4.3 0.10 0.93 0.92 99 1011.7
20260506113642 51 37 0.0 4.3 0.10 0.93 0.92 99 1011.8
20260506113421 51 19 0.0 3.5 0.10 0.92 0.91 99 1011.7
20260506113221 51 297 0.0 3.5 0.10 0.92 0.91 99 1011.8
20260506113021 51 280 0.0 3.5 0.09 0.91 0.90 99 1011.8
20260506112843 51 278 0.0 3.5 0.09 0.91 0.90 99 1011.9
20260506112621 51 279 0.0 3.5 0.08 0.90 0.90 99 1011.9
20260506112421 51 278 0.0 3.5 0.08 0.90 0.89 99 1011.8
20260506112222 51 283 0.0 1.7 0.08 0.90 0.89 99 1011.9
20260506112023 51 291 0.0 0.9 0.07 0.89 0.88 99 1011.5
20260506111822 52 294 0.0 0.9 0.07 0.89 0.88 99 1011.2
20260506111622 52 291 0.0 0.9 0.07 0.88 0.87 99 1011.3
20260506111442 52 294 0.0 1.7 0.07 0.88 0.87 99 1011.4
20260506111222 52 10 0.0 1.7 0.06 0.87 0.86 99 1011.4
20260506111021 52 295 0.9 2.6 0.06 0.87 0.86 98 1011.4
20260506110821 52 284 0.9 2.6 0.06 0.86 0.85 98 1011.6
20260506110642 52 284 0.9 2.6 0.06 0.86 0.85 98 1011.4
20260506110421 52 284 0.9 3.5 0.06 0.86 0.85 98 1011.1
20260506110222 52 281 0.9 7.0 0.05 0.85 0.84 98 1011.3
20260506110021 52 281 0.9 7.0 0.06 0.85 0.84 98 1011.6
20260506105822 52 282 0.9 7.0 0.06 0.85 0.84 98 1011.4
20260506105621 52 290 0.9 7.0 0.06 0.85 0.84 98 1011.5
20260506105422 52 295 0.9 7.0 0.06 0.84 0.83 98 1011.9
20260506105221 52 304 0.0 4.3 0.06 0.84 0.83 98 1011.4
20260506105021 52 304 0.0 4.3 0.06 0.84 0.83 98 1011.2
20260506104822 52 311 0.0 4.3 0.07 0.84 0.83 98 1011.0
20260506104621 52 285 0.0 4.3 0.06 0.83 0.82 98 1011.1
20260506104421 52 281 0.0 4.3 0.07 0.83 0.82 98 1011.4
20260506104243 52 29 0.0 1.7 0.07 0.83 0.82 98 1010.9
20260506104021 52 34 0.0 1.7 0.08 0.83 0.82 98 1010.6
20260506103822 52 40 0.0 1.7 0.08 0.83 0.82 98 1010.6
20260506103621 52 38 0.0 1.7 0.09 0.83 0.82 98 1010.7
20260506103442 52 42 0.0 1.7 0.08 0.82 0.82 98 1010.5
20260506103221 52 43 0.0 1.7 0.09 0.82 0.81 98 1010.5
20260506103024 52 43 0.0 1.7 0.09 0.82 0.81 98 1010.5
20260506102821 52 43 0.0 2.6 0.10 0.82 0.81 98 1010.4
20260506102623 52 36 0.0 2.6 0.11 0.82 0.81 98 1010.6
20260506102421 52 36 0.0 2.6 0.12 0.82 0.81 98 1010.5
20260506102221 52 35 0.0 2.6 0.12 0.82 0.81 98 1010.5
20260506102021 52 37 0.0 2.6 0.13 0.82 0.81 98 1010.4
20260506101822 52 35 0.0 1.7 0.14 0.82 0.81 98 1010.4
20260506101622 52 40 0.0 1.7 0.14 0.81 0.80 98 1010.5
20260506101421 52 35 0.0 1.7 0.15 0.81 0.80 98 1010.5
20260506101221 52 34 0.0 1.7 0.16 0.81 0.80 98 1010.5
20260506101022 52 26 0.0 1.7 0.17 0.81 0.80 98 1010.4
20260506100844 52 291 0.0 0.9 0.18 0.80 0.80 98 1010.3
20260506100622 52 294 0.0 0.9 0.19 0.80 0.79 98 1010.2
20260506100422 52 294 0.0 0.9 0.19 0.80 0.79 98 1010.3
20260506100222 52 307 0.0 0.9 0.19 0.80 0.79 98 1010.4
20260506100022 52 335 0.0 0.9 0.18 0.79 0.78 98 1010.5
20260506095823 52 287 0.0 2.6 0.19 0.79 0.78 98 1010.3
20260506095643 52 286 0.0 2.6 0.21 0.79 0.78 98 1010.3
20260506095422 52 285 0.0 2.6 0.20 0.78 0.77 98 1010.4
20260506095222 52 290 0.0 2.6 0.21 0.78 0.77 98 1010.3
20260506095021 52 284 0.0 2.6 0.22 0.78 0.77 98 1010.3
20260506094822 52 286 0.0 1.7 0.24 0.77 0.76 98 1010.4
20260506094621 52 288 0.0 2.6 0.26 0.77 0.76 98 1010.3
20260506094422 52 286 0.0 2.6 0.28 0.76 0.75 98 1010.3
20260506094221 52 283 0.0 2.6 0.29 0.76 0.75 98 1010.3
20260506094023 52 285 0.0 2.6 0.28 0.75 0.74 98 1010.3
20260506093843 52 291 0.0 2.6 0.28 0.75 0.74 98 1010.3
20260506093622 52 290 0.0 1.7 0.28 0.74 0.73 98 1010.3
20260506093444 52 292 0.0 1.7 0.29 0.74 0.73 98 1010.3
20260506093222 52 304 0.0 1.7 0.29 0.73 0.72 98 1010.3
20260506093022 52 302 0.0 1.7 0.31 0.73 0.72 98 1010.3
20260506092821 52 281 0.0 0.9 0.32 0.72 0.71 98 1010.4
20260506092621 52 281 0.0 1.7 0.32 0.71 0.70 98 1010.3
20260506092422 52 284 0.0 1.7 0.31 0.70 0.70 97 1010.3
20260506092222 52 283 0.0 1.7 0.32 0.70 0.69 97 1010.2
20260506092022 52 276 0.0 2.6 0.32 0.69 0.68 97 1010.2
20260506091821 52 279 0.0 2.6 0.31 0.68 0.67 97 1010.1
20260506091622 52 292 0.0 2.6 0.30 0.67 0.66 97 1010.3
20260506091422 52 292 0.0 2.6 0.30 0.66 0.65 97 1010.3
20260506091222 52 290 0.0 2.6 0.29 0.65 0.64 98 1010.4
20260506091022 52 296 0.0 1.7 0.28 0.64 0.63 98 1010.6
20260506090844 52 293 0.0 1.7 0.26 0.62 0.61 97 1010.5
20260506090621 52 285 0.0 1.7 0.25 0.61 0.60 97 1010.5
20260506090443 52 284 0.0 1.7 0.25 0.61 0.60 97 1010.4
20260506090243 52 283 0.0 1.7 0.25 0.61 0.60 97 1010.2
20260506090022 53 277 0.0 1.7 0.25 0.61 0.60 97 1010.2
20260506085844 53 272 0.0 0.9 0.24 0.60 0.59 97 1010.0
20260506085622 53 278 0.0 1.7 0.22 0.58 0.58 97 1009.8
20260506085421 53 278 0.0 1.7 0.22 0.58 0.57 97 1009.8
20260506085222 53 277 0.0 1.7 0.22 0.57 0.56 97 1009.9
20260506085021 53 280 0.0 2.6 0.21 0.56 0.55 97 1010.1
20260506084822 53 283 0.0 2.6 0.19 0.53 0.52 97 1010.1
20260506084623 53 293 0.9 2.6 0.20 0.51 0.50 97 1010.1
20260506084422 53 296 0.9 2.6 0.19 0.48 0.47 97 1010.1
20260506084222 53 291 0.9 3.5 0.18 0.47 0.46 97 1009.9
20260506084022 53 292 0.9 3.5 0.19 0.47 0.46 97 1009.8
20260506083822 53 287 0.9 3.5 0.20 0.47 0.46 97 1009.6
20260506083643 53 284 0.9 3.5 0.19 0.46 0.45 97 1010.3
20260506083422 53 284 0.9 3.5 0.18 0.45 0.44 97 1010.2
20260506083222 53 293 0.9 3.5 0.17 0.44 0.43 97 1009.7
20260506083022 53 320 0.9 3.5 0.15 0.42 0.41 97 1010.0
20260506082843 53 9 0.0 4.3 0.13 0.40 0.40 97 1009.8
20260506082621 53 38 0.0 4.3 0.12 0.39 0.38 97 1009.7
20260506082423 53 47 0.0 4.3 0.13 0.39 0.38 97 1009.1
20260506082242 54 43 0.0 4.3 0.13 0.38 0.37 97 1009.0
20260506082022 54 313 0.0 4.3 0.13 0.37 0.36 97 1009.0
20260506081843 54 278 0.0 3.5 0.13 0.37 0.36 97 1009.0
20260506081622 54 278 0.0 3.5 0.13 0.37 0.36 97 1009.1
20260506081421 54 282 0.0 3.5 0.13 0.36 0.35 97 1009.3
20260506081222 54 281 0.9 3.5 0.13 0.36 0.35 97 1009.2
20260506081043 54 280 0.9 3.5 0.13 0.36 0.35 97 1009.2
20260506080843 54 283 0.9 2.6 0.13 0.36 0.35 97 1009.1
20260506080622 54 283 0.9 2.6 0.13 0.36 0.35 97 1009.1
20260506080422 54 281 0.9 2.6 0.13 0.36 0.35 97 1009.1
20260506080222 54 281 0.9 2.6 0.13 0.36 0.35 97 1009.2
20260506073422 55 297 0.0 2.6 0.05 0.27 0.26 96 1008.5
20260506073222 55 281 0.9 2.6 0.05 0.27 0.26 96 1008.4
20260506073021 55 282 0.9 3.5 0.05 0.27 0.26 96 1008.4
20260506072822 55 283 0.9 3.5 0.06 0.27 0.26 96 1008.4
20260506072623 55 281 0.9 3.5 0.06 0.27 0.26 96 1008.4
20260506072422 55 279 1.7 4.3 0.05 0.26 0.25 96 1008.4
20260506072222 55 281 1.7 4.3 0.04 0.25 0.24 96 1008.4
20260506072022 55 281 1.7 4.3 0.04 0.24 0.23 95 1008.4
20260506071822 55 281 1.7 4.3 0.04 0.24 0.23 95 1008.4
20260506071622 56 280 1.7 6.1 0.04 0.24 0.23 95 1008.4
20260506071422 56 282 1.7 6.1 0.03 0.23 0.22 95 1008.4
20260506071222 56 282 1.7 6.1 0.03 0.23 0.22 95 1008.3
20260506071022 56 280 1.7 6.1 0.03 0.23 0.22 95 1008.4
20260506070821 56 280 2.6 6.1 0.03 0.23 0.22 94 1008.4
20260506070643 57 281 2.6 5.2 0.03 0.23 0.22 94 1008.3
20260506070422 57 284 2.6 7.8 0.04 0.23 0.22 94 1008.2
20260506070243 57 286 2.6 7.8 0.04 0.23 0.22 94 1008.3
20260506062422 64 234 0.0 2.6 0.20 0.21 0.20 95 1007.3
20260506062243 64 237 0.0 2.6 0.20 0.21 0.20 95 1007.5
20260506062023 64 250 0.0 1.7 0.19 0.20 0.19 95 1007.4
20260506061822 64 247 0.9 1.7 0.19 0.20 0.19 95 1007.2
20260506061622 64 243 0.9 0.9 0.19 0.20 0.19 95 1007.3
20260506061423 64 260 0.9 2.6 0.19 0.20 0.19 95 1007.5
20260506061222 64 255 0.9 2.6 0.19 0.20 0.19 94 1007.5
20260506061043 64 254 0.9 2.6 0.19 0.20 0.19 94 1007.5
20260506060822 64 246 0.9 4.3 0.19 0.20 0.19 94 1007.4
20260506060621 65 246 0.9 4.3 0.19 0.20 0.19 94 1007.5
20260506060422 65 248 0.9 4.3 0.18 0.19 0.18 94 1007.6
20260506060222 65 254 1.7 4.3 0.18 0.19 0.18 93 1007.4
20260506051222 65 221 0.9 3.5 0.00 0.01 0.00 91 1006.5
20260506051022 65 219 0.9 3.5 0.00 0.01 0.00 91 1006.6
20260506050843 65 220 0.9 3.5 0.00 0.01 0.00 92 1006.6
20260506050622 65 225 0.9 3.5 0.00 0.01 0.00 92 1006.6
20260506050422 64 224 0.9 3.5 0.00 0.01 0.00 92 1006.6
20260506050222 64 218 0.9 2.6 0.00 0.01 0.00 92 1006.6
20260506045022 64 213 0.9 3.5 0.00 0.01 0.01 94 1006.8
20260506044822 64 212 0.9 2.6 0.00 0.01 0.01 94 1006.9
20260506044622 64 216 0.0 1.7 0.00 0.01 0.01 94 1006.9
20260506044422 63 215 0.0 1.7 0.00 0.01 0.01 94 1007.0
20260506044222 63 218 0.0 1.7 0.00 0.01 0.01 95 1007.0
20260506044023 63 229 0.0 1.7 0.00 0.01 0.01 95 1006.9
20260506043822 63 226 0.0 1.7 0.00 0.01 0.01 95 1006.9
20260506043622 63 224 0.0 0.9 0.00 0.01 0.01 95 1006.9
20260506043423 63 224 0.0 0.9 0.00 0.01 0.01 95 1007.0
20260506043222 63 215 0.0 1.7 0.01 0.01 0.01 95 1006.9
20260506043022 63 208 0.0 1.7 0.01 0.01 0.01 95 1006.9
20260506042822 63 204 0.0 1.7 0.01 0.01 0.01 95 1006.8
20260506042622 63 204 0.0 1.7 0.01 0.01 0.01 95 1006.9
20260506042443 63 204 0.0 1.7 0.01 0.01 0.01 95 1006.9
20260506042223 63 211 0.0 0.9 0.01 0.01 0.01 95 1007.0
20260506042022 63 211 0.0 0.9 0.01 0.01 0.01 95 1007.0
20260506041822 62 211 0.0 0.9 0.01 0.01 0.01 95 1007.0
20260506041622 62 211 0.0 0.9 0.01 0.01 0.01 95 1007.0
20260506041422 62 211 0.0 0.9 0.01 0.01 0.01 95 1007.0
20260506041222 62 190 0.0 0.9 0.01 0.01 0.01 95 1007.1
20260506041022 62 187 0.0 0.9 0.01 0.01 0.01 95 1007.1
20260506040822 62 179 0.0 0.9 0.01 0.01 0.01 95 1007.1
20260506040643 62 176 0.0 0.9 0.01 0.01 0.01 95 1007.1
20260506040422 62 166 0.0 0.9 0.01 0.01 0.01 95 1007.0
20260506040222 62 178 0.0 0.9 0.01 0.01 0.01 95 1007.1
20260506040022 62 178 0.0 0.9 0.01 0.01 0.01 95 1007.1
20260506035822 62 0 0.0 0.0 0.01 0.01 0.01 94 1007.2
20260506035622 62 0 0.0 0.0 0.01 0.01 0.01 94 1007.2
20260506035422 62 0 0.0 0.0 0.01 0.01 0.01 94 1007.1
20260506035222 62 0 0.0 0.0 0.01 0.01 0.01 94 1007.2
20260506035043 62 0 0.0 0.0 0.01 0.01 0.01 94 1007.3
20260506034822 62 0 0.0 0.0 0.01 0.01 0.01 94 1007.3
20260506034622 62 0 0.0 0.0 0.01 0.01 0.01 94 1007.5
20260506034422 62 0 0.0 0.0 0.01 0.01 0.01 94 1007.5
20260506034222 62 0 0.0 0.0 0.01 0.01 0.01 94 1007.4
20260506034022 62 0 0.0 0.0 0.01 0.01 0.01 94 1007.4
20260506033843 62 0 0.0 0.0 0.01 0.01 0.01 94 1007.6
20260506033622 62 0 0.0 0.0 0.01 0.01 0.01 94 1007.6
20260506033443 62 0 0.0 0.0 0.01 0.01 0.01 94 1007.8
20260506033222 62 139 0.0 0.9 0.00 0.00 0.00 94 1007.6
20260506033023 62 140 0.0 0.9 0.00 0.00 0.00 94 1007.5
20260506032822 62 140 0.0 0.9 0.00 0.00 0.00 94 1007.4
20260506032643 62 140 0.0 0.9 0.00 0.00 0.00 94 1007.3
20260506032443 62 140 0.0 0.9 0.00 0.00 0.00 94 1007.4
20260506032222 62 140 0.0 0.9 0.00 0.00 0.00 93 1007.4
20260506032022 62 140 0.0 0.9 0.00 0.00 0.00 93 1007.5
20260506031822 62 140 0.0 0.9 0.00 0.00 0.00 93 1007.5
20260506031622 62 140 0.0 0.9 0.00 0.00 0.00 93 1007.6
20260506031422 62 140 0.0 0.9 0.00 0.00 0.00 93 1007.5
20260506031222 62 139 0.0 0.9 0.00 0.00 0.00 93 1007.4
20260506031043 62 139 0.0 0.9 0.00 0.00 0.00 93 1007.5
20260506030822 62 139 0.0 0.9 0.00 0.00 0.00 93 1007.5
20260506030622 62 139 0.0 0.9 0.00 0.00 0.00 93 1007.5
20260506030422 62 139 0.0 0.9 0.00 0.00 0.00 93 1007.6
20260506030243 62 0 0.0 0.0 0.00 0.00 0.00 93 1007.6
20260506030022 62 0 0.0 0.0 0.00 0.00 0.00 93 1007.6
20260506025822 62 0 0.0 0.0 0.00 0.00 0.00 93 1007.6
20260506025622 62 0 0.0 0.0 0.00 0.00 0.00 93 1007.6
20260506025422 62 0 0.0 0.0 0.00 0.00 0.00 93 1007.6
20260506025222 62 0 0.0 0.0 0.00 0.00 0.00 93 1007.6
20260506025022 62 0 0.0 0.0 0.00 0.00 0.00 93 1007.6
20260506024843 62 0 0.0 0.0 0.00 0.00 0.00 92 1007.7
20260506024622 62 0 0.0 0.0 0.00 0.00 0.00 92 1007.7
20260506024422 62 0 0.0 0.0 0.00 0.00 0.00 92 1007.7
20260506024222 62 0 0.0 0.0 0.00 0.00 0.00 92 1007.7
20260506024022 62 0 0.0 0.0 0.00 0.00 0.00 92 1007.7
20260506023843 62 140 0.0 0.9 0.00 0.00 0.00 92 1007.8
20260506023622 62 140 0.0 0.9 0.00 0.00 0.00 92 1007.8
20260506023422 62 140 0.0 0.9 0.00 0.00 0.00 92 1007.8
20260506023222 62 140 0.0 0.9 0.00 0.00 0.00 92 1007.7
20260506023022 62 138 0.0 0.9 0.00 0.00 0.00 92 1007.8
20260506022822 62 137 0.0 0.9 0.00 0.00 0.00 92 1007.8
20260506022622 62 137 0.0 0.9 0.00 0.00 0.00 92 1007.8
20260506022422 62 137 0.0 0.9 0.00 0.00 0.00 92 1007.9
20260506022243 62 137 0.0 0.9 0.00 0.00 0.00 92 1008.0
20260506022022 62 137 0.0 0.9 0.00 0.00 0.00 92 1008.1
20260506021822 62 137 0.0 0.9 0.00 0.00 0.00 92 1008.2
20260506021643 62 137 0.0 0.9 0.00 0.00 0.00 92 1008.1
20260506021423 61 137 0.0 0.9 0.00 0.00 0.00 92 1008.1
20260506021222 61 0 0.0 0.0 0.00 0.00 0.00 91 1008.0
20260506021022 61 0 0.0 0.0 0.00 0.00 0.00 91 1008.0
20260506020822 61 0 0.0 0.0 0.00 0.00 0.00 91 1008.1
20260506020622 61 0 0.0 0.0 0.00 0.00 0.00 91 1008.1
20260506020422 61 0 0.0 0.0 0.00 0.00 0.00 91 1008.2
20260506020222 61 0 0.0 0.0 0.00 0.00 0.00 91 1008.1
20260506020043 61 0 0.0 0.0 0.00 0.00 0.00 91 1008.2
20260506015823 61 0 0.0 0.0 0.00 0.00 0.00 91 1008.2
20260506015622 61 137 0.0 0.9 0.00 0.00 0.00 92 1008.2
20260506015422 61 137 0.0 0.9 0.00 0.00 0.00 92 1008.3
20260506015222 61 137 0.0 0.9 0.00 0.00 0.00 91 1008.3
20260506015022 61 135 0.0 0.9 0.00 0.00 0.00 91 1008.2
20260506014822 61 135 0.0 0.9 0.00 0.00 0.00 91 1008.2
20260506014622 61 134 0.0 0.9 0.00 0.00 0.00 91 1008.2
20260506014422 61 134 0.0 1.7 0.00 0.00 0.00 91 1008.3
20260506014222 61 138 0.0 1.7 0.00 0.00 0.00 91 1008.1
20260506014043 61 141 0.0 1.7 0.00 0.00 0.00 91 1008.1
20260506013822 61 141 0.0 1.7 0.00 0.00 0.00 91 1008.1
20260506013643 61 141 0.0 1.7 0.00 0.00 0.00 91 1008.1
20260506013443 62 147 0.0 0.9 0.00 0.00 0.00 91 1008.1
20260506013243 62 150 0.0 0.9 0.00 0.00 0.00 91 1008.1
20260506013022 62 159 0.0 0.9 0.00 0.00 0.00 91 1008.1
20260506012822 62 159 0.0 0.9 0.00 0.00 0.00 91 1008.1
20260506012622 62 159 0.0 0.9 0.00 0.00 0.00 91 1008.1
20260506012422 62 168 0.0 0.9 0.00 0.00 0.00 90 1008.1
20260506012222 62 172 0.0 0.9 0.00 0.00 0.00 90 1008.1
20260506012022 62 0 0.0 0.0 0.00 0.00 0.00 90 1008.1
20260506011822 62 0 0.0 0.0 0.00 0.00 0.00 90 1008.1
20260506011623 62 0 0.0 0.0 0.00 0.00 0.00 90 1008.1
20260506011422 62 0 0.0 0.0 0.00 0.00 0.00 90 1008.1
20260506011222 62 0 0.0 0.0 0.00 0.00 0.00 90 1008.2
20260506011043 62 0 0.0 0.0 0.00 0.00 0.00 90 1008.2
20260506010843 62 0 0.0 0.0 0.00 0.00 0.00 90 1008.2
20260506010622 62 0 0.0 0.0 0.00 0.00 0.00 89 1008.2
20260506010422 62 0 0.0 0.0 0.00 0.00 0.00 89 1008.3
20260506010222 62 0 0.0 0.0 0.00 0.00 0.00 89 1008.4
20260506010022 62 0 0.0 0.0 0.00 0.00 0.00 89 1008.3
20260506005822 62 0 0.0 0.0 0.00 0.00 0.00 89 1008.5
20260506005622 62 0 0.0 0.0 0.00 0.00 0.00 88 1008.6
20260506005422 62 0 0.0 0.0 0.00 0.00 0.00 88 1008.6
20260506005243 62 0 0.0 0.0 0.00 0.00 0.00 88 1008.7
20260506005022 62 0 0.0 0.0 0.00 0.00 0.00 88 1008.6
20260506004822 62 0 0.0 0.0 0.00 0.00 0.00 88 1008.7
20260506004643 62 0 0.0 0.0 0.00 0.00 0.00 88 1008.6
20260506004422 63 0 0.0 0.0 0.00 0.00 0.00 88 1008.7
20260506004222 63 0 0.0 0.0 0.00 0.00 0.00 87 1008.6
20260506004022 63 0 0.0 0.0 0.00 0.00 0.00 87 1008.6
20260506003822 63 0 0.0 0.0 0.00 0.00 0.00 87 1008.6
20260506003622 63 0 0.0 0.0 0.00 0.00 0.00 87 1008.5
20260506003422 63 0 0.0 0.0 0.00 0.00 0.00 87 1008.6
20260506003223 63 0 0.0 0.0 0.00 0.00 0.00 86 1008.6
20260506003043 63 0 0.0 0.0 0.00 0.00 0.00 86 1008.7
20260506002822 63 0 0.0 0.0 0.00 0.00 0.00 86 1008.7
20260506002643 63 0 0.0 0.0 0.00 0.00 0.00 86 1008.7
20260506002422 63 0 0.0 0.0 0.00 0.00 0.00 86 1008.8
20260506002222 63 0 0.0 0.0 0.00 0.00 0.00 86 1008.8
20260506002023 63 0 0.0 0.0 0.00 0.00 0.00 85 1008.7
20260506001822 63 0 0.0 0.0 0.00 0.00 0.00 85 1008.7
20260506001622 63 223 0.0 0.9 0.00 0.00 0.00 84 1008.7
20260506001422 63 223 0.0 0.9 0.00 0.00 0.00 84 1008.8
20260506001222 64 224 0.9 0.9 0.00 0.00 0.00 84 1008.9
20260506001022 64 219 0.9 1.7 0.00 0.00 0.00 84 1008.9
20260506000822 64 219 0.9 1.7 0.00 0.00 0.00 83 1008.9
20260506000622 64 220 0.9 1.7 0.00 0.00 0.00 82 1008.8
20260506000445 64 217 0.9 1.7 0.00 0.00 0.00 82 1008.8
20260506000243 64 214 0.9 1.7 0.00 0.00 0.00 82 1009.0
20260506000022 65 217 0.0 2.6 0.00 0.00 0.00 81 1009.0
20260505235822 65 219 0.0 2.6 0.00 0.00 0.00 81 1009.2
20260505235622 65 221 0.0 2.6 0.00 0.00 0.00 80 1009.2
20260505235443 65 227 0.0 2.6 0.00 0.00 0.00 79 1009.2
20260505235222 65 236 0.9 1.7 0.00 0.00 0.00 79 1009.2
20260505235022 66 232 0.9 1.7 0.00 0.00 0.00 79 1009.3
20260505234843 66 223 0.9 3.5 0.00 0.00 0.00 79 1009.2
20260505234643 66 219 0.9 3.5 0.00 0.00 0.00 78 1009.0
20260505234422 66 219 0.9 3.5 0.00 0.00 0.00 77 1008.8
20260505234222 67 218 1.7 3.5 0.00 0.00 0.00 76 1008.6
20260505234022 67 215 1.7 3.5 0.00 0.00 0.00 75 1008.6
20260505233822 67 213 2.6 3.5 0.00 0.00 0.00 74 1008.5
20260505233622 68 211 2.6 3.5 0.00 0.00 0.00 74 1008.4
20260505233443 68 210 2.6 3.5 0.00 0.00 0.00 73 1008.6
20260505233222 69 208 2.6 3.5 0.00 0.00 0.00 72 1008.7
20260505233022 70 207 2.6 3.5 0.00 0.00 0.00 71 1008.7
20260505232822 70 170 2.6 1.7 0.00 0.00 0.00 69 1008.6
20260505231622 72 212 1.7 7.8 0.00 0.00 0.00 61 1008.3
20260505231422 72 211 1.7 7.8 0.00 0.00 0.00 60 1008.2
20260505231222 72 214 1.7 7.8 0.00 0.00 0.00 59 1008.4
20260505231043 73 217 2.6 7.8 0.00 0.00 0.00 59 1008.4
20260505230822 73 220 2.6 7.8 0.00 0.00 0.00 58 1008.5
20260505230623 73 219 3.5 7.8 0.00 0.00 0.00 59 1008.5
20260505230422 73 217 3.5 7.8 0.00 0.00 0.00 58 1008.5
20260505230222 73 219 3.5 8.7 0.00 0.00 0.00 59 1008.5
20260505230022 73 220 3.5 8.7 0.00 0.00 0.00 58 1008.5
20260505225822 73 220 3.5 8.7 0.00 0.00 0.00 58 1008.4
20260505225622 73 221 3.5 8.7 0.00 0.00 0.00 58 1008.3
20260505225422 73 221 3.5 8.7 0.00 0.00 0.00 58 1008.2
20260505225222 74 221 2.6 8.7 0.00 0.00 0.00 58 1008.3
20260505225022 74 218 2.6 8.7 0.00 0.00 0.00 57 1008.2
20260505224823 74 220 1.7 8.7 0.00 0.00 0.00 57 1008.1
20260505224622 74 217 1.7 6.1 0.00 0.00 0.00 57 1008.1
20260505224443 74 217 1.7 6.1 0.00 0.00 0.00 58 1008.0
20260505224222 74 218 2.6 6.1 0.00 0.00 0.00 58 1007.9
20260505224022 74 219 2.6 7.8 0.00 0.00 0.00 58 1007.9
20260505223822 74 216 2.6 7.8 0.00 0.00 0.00 58 1007.9
20260505223622 74 218 3.5 7.8 0.00 0.00 0.00 58 1007.9
20260505223422 74 217 2.6 7.8 0.00 0.00 0.00 58 1008.1
20260505223222 74 216 2.6 7.8 0.00 0.00 0.00 57 1008.1
20260505223022 74 214 2.6 7.0 0.00 0.00 0.00 57 1008.0
20260505222822 74 216 2.6 7.0 0.00 0.00 0.00 57 1008.0
20260505222622 74 215 2.6 7.0 0.00 0.00 0.00 57 1008.0
20260505222443 75 216 2.6 7.0 0.00 0.00 0.00 57 1008.0
20260505222243 75 219 2.6 7.0 0.00 0.00 0.00 57 1008.1
20260505222022 75 218 2.6 6.1 0.00 0.00 0.00 57 1008.0
20260505221822 75 216 2.6 6.1 0.00 0.00 0.00 57 1008.0
20260505221622 75 215 2.6 6.1 0.00 0.00 0.00 57 1008.0
20260505221422 75 214 2.6 6.1 0.00 0.00 0.00 58 1008.0
20260505221222 75 214 2.6 6.1 0.00 0.00 0.00 57 1008.1
20260505221022 75 215 2.6 6.1 0.00 0.00 0.00 57 1008.2
20260505220843 75 215 1.7 6.1 0.00 0.00 0.00 57 1008.2
20260505220622 75 217 1.7 6.1 0.00 0.00 0.00 57 1008.2
20260505220443 75 217 1.7 6.1 0.00 0.00 0.00 58 1008.3
20260505220244 75 218 1.7 6.1 0.00 0.00 0.00 58 1008.3
20260505220022 75 216 1.7 4.3 0.00 0.00 0.00 59 1008.3
20260505215822 75 218 1.7 4.3 0.00 0.00 0.00 59 1008.2
20260505215622 75 216 1.7 5.2 0.00 0.00 0.00 59 1008.3
20260505215422 75 214 1.7 5.2 0.00 0.00 0.00 58 1008.2
20260505215222 75 213 1.7 5.2 0.00 0.00 0.00 59 1008.2
20260505215022 75 212 1.7 5.2 0.00 0.00 0.00 58 1008.2
20260505214822 75 209 1.7 5.2 0.00 0.00 0.00 59 1008.2
20260505214622 75 204 1.7 4.3 0.00 0.00 0.00 60 1008.3
20260505214422 75 202 1.7 4.3 0.00 0.00 0.00 60 1008.3
20260505214222 75 203 1.7 4.3 0.00 0.00 0.00 59 1008.3
20260505214043 75 199 1.7 4.3 0.00 0.00 0.00 60 1008.3
20260505213822 75 196 1.7 4.3 0.00 0.00 0.00 58 1008.2
20260505213622 75 191 1.7 4.3 0.00 0.00 0.00 58 1008.3
20260505213422 75 194 1.7 4.3 0.00 0.00 0.00 58 1008.3
20260505213222 75 189 1.7 4.3 0.00 0.00 0.00 58 1008.4
20260505213022 75 187 1.7 4.3 0.00 0.00 0.00 59 1008.5
20260505212822 75 185 1.7 4.3 0.00 0.00 0.00 58 1008.4
20260505212622 75 184 1.7 4.3 0.00 0.00 0.00 57 1008.5
20260505212422 75 178 1.7 4.3 0.00 0.00 0.00 58 1008.5
20260505212223 76 183 1.7 4.3 0.00 0.00 0.00 57 1008.4
20260505212022 76 192 1.7 5.2 0.00 0.00 0.00 57 1008.5
20260505211822 76 203 1.7 5.2 0.00 0.00 0.00 58 1008.4
20260505211622 76 210 1.7 5.2 0.00 0.00 0.00 58 1008.4
20260505211422 76 214 1.7 5.2 0.00 0.00 0.00 58 1008.4
20260505211222 76 214 1.7 5.2 0.00 0.00 0.00 58 1008.5
20260505211043 75 213 1.7 4.3 0.00 0.00 0.00 58 1008.4
20260505210822 75 210 1.7 2.6 0.00 0.00 0.00 59 1008.4
20260505210622 75 214 1.7 3.5 0.00 0.00 0.00 58 1008.4
20260505210422 75 218 1.7 4.3 0.00 0.00 0.00 58 1008.5
20260505210222 75 219 1.7 4.3 0.00 0.00 0.00 57 1008.6
20260505210022 75 215 1.7 5.2 0.00 0.00 0.00 58 1008.6
20260505205822 75 215 2.6 5.2 0.00 0.00 0.00 58 1008.7
20260505205622 75 214 2.6 7.0 0.00 0.00 0.00 58 1008.7
20260505205443 75 211 2.6 7.0 0.00 0.00 0.00 58 1008.6
20260505205243 75 212 2.6 7.0 0.00 0.00 0.00 56 1008.7
20260505205023 75 212 2.6 7.0 0.00 0.00 0.00 57 1008.7
20260505204822 75 212 2.6 7.0 0.00 0.00 0.00 57 1008.8
20260505204643 75 210 2.6 5.2 0.00 0.00 0.00 56 1008.6
20260505204422 75 208 2.6 5.2 0.00 0.00 0.00 55 1008.6
20260505204222 75 208 2.6 5.2 0.00 0.00 0.00 56 1008.7
20260505204044 75 212 2.6 5.2 0.00 0.00 0.00 57 1008.8
20260505203822 75 211 2.6 5.2 0.00 0.00 0.00 56 1008.9
20260505203622 75 211 2.6 5.2 0.00 0.00 0.00 55 1008.9
20260505203422 75 211 2.6 7.0 0.00 0.00 0.00 56 1008.9
20260505203222 75 210 2.6 7.0 0.00 0.00 0.00 56 1008.9
20260505203043 75 209 2.6 7.0 0.00 0.00 0.00 57 1009.0
20260505202822 75 209 2.6 7.0 0.00 0.00 0.00 56 1008.9
20260505202622 75 210 3.5 7.0 0.00 0.00 0.00 55 1008.9
20260505202422 75 214 3.5 7.0 0.00 0.00 0.00 55 1009.0
20260505202222 75 211 3.5 7.0 0.00 0.00 0.00 55 1009.0
20260505202022 75 212 3.5 7.0 0.00 0.00 0.00 55 1009.0
20260505201823 76 213 3.5 7.8 0.00 0.00 0.00 54 1008.9
20260505201622 76 212 3.5 7.8 0.00 0.00 0.00 55 1009.0
20260505201443 76 211 2.6 7.8 0.00 0.00 0.00 55 1009.0
20260505201222 76 214 2.6 7.8 0.00 0.00 0.00 55 1009.0
20260505201022 76 210 2.6 7.8 0.00 0.00 0.00 55 1009.1
20260505200822 76 212 2.6 6.1 0.00 0.00 0.00 55 1009.2
20260505200622 76 212 2.6 6.1 0.00 0.00 0.00 57 1009.2
20260505200422 76 209 2.6 6.1 0.00 0.00 0.00 56 1009.2
20260505200222 76 209 2.6 6.1 0.00 0.00 0.00 57 1009.3
20260505200022 76 212 2.6 6.1 0.00 0.00 0.00 57 1009.2
20260505195822 76 206 2.6 6.1 0.00 0.00 0.00 57 1009.3
20260505195623 75 210 2.6 6.1 0.00 0.00 0.00 58 1009.3
20260505195422 75 211 1.7 6.1 0.00 0.00 0.00 60 1009.3
20260505195243 76 203 1.7 6.1 0.00 0.00 0.00 58 1009.2
20260505195022 75 199 2.6 6.1 0.00 0.00 0.00 58 1009.3
20260505194822 75 206 2.6 6.1 0.00 0.00 0.00 58 1009.4
20260505194643 75 197 2.6 5.2 0.00 0.00 0.00 59 1009.4
20260505194422 75 200 3.5 5.2 0.00 0.00 0.00 59 1009.3
20260505194243 75 207 3.5 6.1 0.00 0.00 0.00 58 1009.2
20260505194022 75 210 3.5 6.1 0.00 0.00 0.00 59 1009.3
20260505193843 75 207 3.5 6.1 0.00 0.00 0.00 59 1009.3
20260505193622 75 213 3.5 7.8 0.00 0.00 0.00 58 1009.4
20260505193443 75 214 3.5 7.8 0.00 0.00 0.00 58 1009.4
20260505193222 75 211 2.6 7.8 0.00 0.00 0.00 58 1009.6
20260505193022 75 211 2.6 8.7 0.00 0.00 0.00 57 1009.5
20260505192822 75 205 2.6 8.7 0.00 0.00 0.00 56 1009.5
20260505192622 75 202 2.6 8.7 0.00 0.00 0.00 56 1009.6
20260505192422 75 200 2.6 8.7 0.00 0.00 0.00 56 1009.7
20260505192222 75 202 2.6 8.7 0.00 0.00 0.00 56 1009.8
20260505192043 75 202 2.6 6.1 0.00 0.00 0.00 56 1009.9
20260505191822 75 209 1.7 7.0 0.00 0.00 0.00 57 1009.9
20260505191644 75 213 1.7 7.0 0.00 0.00 0.00 58 1009.9
20260505191422 75 210 1.7 7.0 0.00 0.00 0.00 57 1009.9
20260505191222 75 213 1.7 7.0 0.00 0.00 0.00 57 1009.9
20260505191022 75 211 1.7 7.0 0.00 0.00 0.00 59 1009.9
20260505190822 75 211 2.6 5.2 0.00 0.00 0.00 59 1010.0
20260505190622 75 212 2.6 5.2 0.00 0.00 0.00 59 1010.0
20260505190422 75 215 2.6 7.0 0.00 0.00 0.00 58 1009.9
20260505190222 75 211 2.6 7.0 0.00 0.00 0.00 58 1010.0
20260505190022 74 210 2.6 7.0 0.00 0.00 0.00 60 1010.0
20260505185822 74 207 2.6 7.0 0.00 0.00 0.00 58 1009.9
20260505185643 74 206 2.6 7.0 0.00 0.00 0.00 58 1010.1
20260505185422 74 199 2.6 7.0 0.00 0.00 0.00 58 1010.0
20260505185243 74 198 2.6 7.0 0.00 0.00 0.00 58 1010.1
20260505185043 74 200 2.6 7.0 0.00 0.00 0.00 58 1010.1
20260505184822 74 195 2.6 7.0 0.00 0.00 0.00 59 1010.1
20260505184622 74 197 2.6 7.0 0.00 0.00 0.00 59 1010.1
20260505184422 74 201 2.6 6.1 0.00 0.00 0.00 60 1010.1
20260505184223 73 206 2.6 6.1 0.00 0.00 0.00 61 1010.2
20260505184022 73 207 2.6 5.2 0.00 0.00 0.00 60 1010.1
20260505183822 73 212 1.7 5.2 0.00 0.00 0.00 62 1010.1
20260505183622 72 214 1.7 5.2 0.00 0.00 0.00 61 1010.1
20260505183443 72 216 1.7 5.2 0.00 0.00 0.00 62 1010.1
20260505183222 72 217 1.7 6.1 0.00 0.00 0.00 63 1010.2
20260505183022 71 217 1.7 6.1 0.00 0.00 0.00 63 1010.2
20260505182822 71 217 1.7 6.1 0.00 0.00 0.00 64 1010.1
20260505182622 71 216 1.7 6.1 0.00 0.00 0.00 64 1010.1
20260505182422 71 214 1.7 6.1 0.00 0.00 0.00 63 1010.1
20260505182222 71 212 1.7 7.0 0.00 0.00 0.00 64 1010.2
20260505182022 71 208 1.7 7.0 0.00 0.00 0.00 65 1010.3
20260505181822 71 209 1.7 7.0 0.00 0.00 0.00 64 1010.2
20260505181622 71 206 1.7 7.0 0.00 0.00 0.00 64 1010.3
20260505181422 71 206 2.6 7.0 0.00 0.00 0.00 64 1010.3
20260505181243 71 206 2.6 5.2 0.00 0.00 0.00 64 1010.3
20260505181022 71 210 2.6 5.2 0.00 0.00 0.00 66 1010.3
20260505180822 71 212 2.6 6.1 0.00 0.00 0.00 66 1010.3
20260505180622 71 217 2.6 6.1 0.00 0.00 0.00 65 1010.3
20260505180422 71 218 1.7 6.1 0.00 0.00 0.00 65 1010.4
20260505180222 71 219 1.7 6.1 0.00 0.00 0.00 65 1010.3
20260505180022 71 218 1.7 6.1 0.00 0.00 0.00 65 1010.3
20260505175822 71 217 1.7 6.1 0.00 0.00 0.00 65 1010.5
20260505175622 71 214 1.7 6.1 0.00 0.00 0.00 66 1010.5
20260505175422 71 209 1.7 4.3 0.00 0.00 0.00 66 1010.5
20260505175222 71 211 1.7 4.3 0.00 0.00 0.00 66 1010.6
20260505175022 71 211 1.7 4.3 0.00 0.00 0.00 66 1010.6
20260505174822 71 209 2.6 5.2 0.00 0.07 0.00 65 1010.6
20260505174622 71 209 2.6 5.2 0.00 0.07 0.00 65 1010.7
20260505174422 71 210 2.6 5.2 0.00 0.07 0.00 65 1010.6
20260505174222 72 208 2.6 5.2 0.00 0.07 0.00 65 1010.6
20260505174022 72 212 2.6 5.2 0.00 0.07 0.00 64 1010.5
20260505173822 72 213 1.7 8.7 0.00 0.07 0.00 65 1010.5
20260505173644 72 213 1.7 8.7 0.00 0.07 0.00 65 1010.6
20260505173422 72 211 1.7 8.7 0.00 0.07 0.00 66 1010.7
20260505173223 72 208 0.9 8.7 0.00 0.07 0.00 65 1010.7
20260505173022 72 205 0.9 8.7 0.00 0.07 0.00 66 1010.7
20260505172822 72 205 0.9 4.3 0.00 0.07 0.00 66 1010.7
20260505172623 72 205 0.9 4.3 0.00 0.07 0.00 66 1010.7
20260505172443 72 204 1.7 4.3 0.00 0.07 0.00 66 1010.7
20260505172222 72 213 1.7 4.3 0.00 0.07 0.00 66 1010.6
20260505172022 72 208 1.7 3.5 0.00 0.07 0.00 68 1010.7
20260505171822 72 210 1.7 5.2 0.00 0.07 0.00 68 1010.7
20260505171622 72 209 2.6 5.2 0.00 0.07 0.00 67 1010.8
20260505171422 72 210 2.6 5.2 0.00 0.07 0.00 67 1010.8
20260505171222 72 211 2.6 5.2 0.00 0.07 0.00 66 1010.9
20260505171022 72 214 2.6 6.1 0.00 0.07 0.00 66 1010.9
20260505170822 72 211 2.6 6.1 0.00 0.07 0.00 66 1011.0
20260505170622 72 211 2.6 6.1 0.00 0.07 0.00 65 1011.1
20260505170422 73 210 2.6 6.1 0.00 0.07 0.00 65 1011.0
20260505170243 73 210 2.6 6.1 0.00 0.07 0.00 65 1011.0
20260505170022 73 211 2.6 6.1 0.00 0.07 0.00 65 1011.0
20260505165843 72 213 2.6 6.1 0.00 0.07 0.00 66 1010.9
20260505165643 72 212 2.6 6.1 0.00 0.07 0.00 67 1011.0
20260505165422 72 210 2.6 6.1 0.00 0.07 0.00 65 1010.9
20260505165222 72 210 2.6 6.1 0.00 0.07 0.00 66 1011.0
20260505165022 72 208 2.6 5.2 0.00 0.07 0.00 66 1011.0
20260505164843 72 207 2.6 5.2 0.00 0.07 0.00 66 1011.1
20260505164622 72 209 2.6 6.1 0.00 0.07 0.00 66 1011.2
20260505164422 72 211 2.6 6.1 0.00 0.07 0.00 67 1011.2
20260505164222 72 212 1.7 6.1 0.00 0.07 0.00 67 1011.2
20260505164022 72 209 2.6 6.1 0.00 0.07 0.00 66 1011.3
20260505163843 72 210 2.6 6.1 0.00 0.07 0.00 66 1011.4
20260505163623 72 210 2.6 5.2 0.00 0.07 0.00 68 1011.4
20260505163444 72 209 1.7 5.2 0.00 0.07 0.00 68 1011.4
20260505163223 71 210 1.7 5.2 0.00 0.07 0.00 67 1011.4
20260505163022 71 213 1.7 5.2 0.00 0.07 0.00 67 1011.4
20260505162822 71 211 1.7 4.3 0.00 0.07 0.00 67 1011.5
20260505162622 71 214 1.7 6.1 0.00 0.07 0.00 67 1011.5
20260505162422 71 221 1.7 6.1 0.00 0.07 0.00 68 1011.6
20260505162222 71 217 1.7 6.1 0.00 0.07 0.00 69 1011.7
20260505162022 71 218 1.7 6.1 0.00 0.07 0.00 68 1011.8
20260505161823 71 218 1.7 6.1 0.00 0.07 0.00 68 1011.9
20260505161622 71 216 1.7 4.3 0.00 0.07 0.00 67 1012.0
20260505161422 71 212 0.9 4.3 0.00 0.07 0.00 68 1012.1
20260505161222 71 211 0.9 4.3 0.00 0.07 0.00 68 1012.1
20260505161022 71 205 1.7 2.6 0.00 0.07 0.00 69 1012.0
20260505160822 71 207 1.7 2.6 0.00 0.07 0.00 68 1012.0
20260505160623 71 214 1.7 5.2 0.00 0.07 0.00 68 1012.1
20260505160443 71 217 1.7 5.2 0.00 0.07 0.00 69 1012.1
20260505160243 71 216 2.6 5.2 0.00 0.07 0.00 70 1012.1
20260505153222 70 214 1.7 6.1 0.00 0.07 0.00 68 1012.4